Preview of NWS' New Version of Forecast
This preview is not operational and should not be used for support decisions.

Regional Weather Roundup (RWR)

Issued by Gray - Portland, ME (GYX)

                            
000
ASUS41 KGYX 171110
RWRGYX
WEATHER ROUNDUP FOR MAINE AND NEW HAMPSHIRE
NATIONAL WEATHER SERVICE GRAY ME
700 AM EDT SAT AUG 17 2019

MEZ002-005-006-010-012-015-018-020-021-024-026-027-029-171200-
MAINE
  
CITY           SKY/WX    TMP DP  RH WIND       PRES   REMARKS
PORTLAND       PTSUNNY   66  63  90 CALM      30.08F                  
SANFORD        CLOUDY    65  64  97 SE3       30.09R                  
BAR HARBOR     CLOUDY    61  60  97 CALM      30.13R                  
WISCASSET      CLOUDY    64  61  90 CALM      30.11S                  
ROCKLAND       CLOUDY    61  61 100 CALM      30.10F FOG              
FRYEBURG       CLOUDY    64  62  93 E3        30.08F FOG              
LEWISTONAUBURN CLOUDY    64  63  96 S6        30.09S                  
AUGUSTA        CLOUDY    62  62 100 SE6       30.10S                  
WATERVILLE     CLOUDY    62  61  96 CALM      30.07F                  
BANGOR         FOG       61  60  97 S3        30.11S VSB 1            
GREENVILLE       N/A     58  58 100 SE7       30.08R                  
MILLINOCKET    RAIN      60  58  92 S3        30.11S FOG              
HOULTON        CLOUDY    61  57  87 SW3       30.09R                  
PRESQUE ISLE   CLOUDY    59  59 100 SE5       30.08S                  
FRENCHVILLE    FOG       59  58  96 SE6       30.07F VSB 1/4          
CARIBOU        CLOUDY    60  58  92 CALM      30.08R FOG              
$$

NHZ002-005-008-009-011-012-014-171200-
NEW HAMPSHIRE
  
CITY           SKY/WX    TMP DP  RH WIND       PRES   REMARKS
PORTSMOUTH     PTSUNNY   66  64  94 SE7       30.06S                  
ROCHESTER      CLOUDY    66  63  90 SE5       30.07F FOG              
NASHUA         CLOUDY    68  68 100 CALM      30.07S                  
MANCHESTER     CLOUDY    69  65  86 S8        30.05S                  
CONCORD        CLOUDY    66  64  93 SE3       30.07S                  
LACONIA        CLOUDY    65  63  93 CALM      30.08S                  
PLYMOUTH       CLOUDY    65  63  93 E3        30.06F                  
BERLIN         LGT RAIN  64  61  90 CALM      30.06S FOG              
WHITEFIELD     PTSUNNY   64  62  93 CALM      30.05S                  
JAFFREY        CLOUDY    67  63  87 S3        30.09S                  
KEENE          CLOUDY    68  65  90 S6        30.06S                  
LEBANON        CLOUDY    68  64  87 NW5       30.03F FOG              
MT WASHINGTON  FOG       50  50 100 SW29        N/A  VSB 1/16         
$$

VTZ005-007-008-171200-
VERMONT
  
CITY           SKY/WX    TMP DP  RH WIND       PRES   REMARKS
ST JOHNSBURY     N/A     65  65 100 MISG      30.02S                  
MONTPELIER     CLOUDY    66  64  93 S5        30.07S                  
BURLINGTON     MOCLDY    71  67  87 SW7       29.98S                  
$$

MAZ007-012-024-CTZ003-RIZ002-NYZ038-NYZ072-171200-
SOUTHERN NEW ENGLAND AND NY
  
CITY           SKY/WX    TMP DP  RH WIND       PRES   REMARKS
BOSTON         FOG       67  64  90 E9        30.07R VSB 1/2          
WORCESTER      FOG       65  65 100 S5        30.09S VSB 1            
NANTUCKET      FOG       63  62  97 E7        30.07S VSB 1/4          
PROVIDENCE     CLOUDY    70  68  93 E3        30.07S                  
HARTFORD       CLOUDY    69  67  93 S5        30.05S                  
ALBANY         CLOUDY    72  67  84 S10G17    30.01R                  
NEW YORK CITY  MOCLDY    73  70  90 NE8       30.01F                  
$$

ANZ081-ANZ082-ANZ150-NHZ014-MEZ023>029-171200-
COASTAL MARINE OBSERVATIONS
  
STATION/POSITION TIME  TEMP    WIND        PRES    WAVE
                       AIR SEA DIR/SP/G            HT/PER
                 (UTC) (F)     (DEG/KT/KT) (MB)    (FT/S)
MATINICUS ROCK   1050   60                 1019.1F
ISLE OF SHOALS   1000   65     120/ 10/ 10 1017.9F
JEFFREYS LEDGE   1038      65                N/A     2/ 7
CASHES LEDGE BUO 1050   64 64  110/  4/  6 1019.3F   2/ 8
GEORGES BANK BUO 1050   68 69   50/  4/  6 1019.2S   3/ 8
$$

.............KEY..............
   WCI - WIND CHILL
   TC  - TEMPERATURE IN CELSIUS
   VSB - VISIBILITY IN MILES
   HX  - HEAT INDEX
   FAIR- INDICATES FEW OR NO CLOUDS BELOW 12,000 FT, WITH NO 
         SIGNIFICANT WEATHER AND/OR OBSTRUCTIONS TO VISIBILITY.